Year,Month,Day,Hour,Minute,Value (Times are PST for temperature in C)
2009,11,24,03,06,8.60
2009,11,24,03,07,8.60
2009,11,24,03,08,8.60
2009,11,24,03,09,8.60
2009,11,24,03,10,8.60
2009,11,24,03,11,8.60
2009,11,24,03,12,8.60
2009,11,24,03,13,8.60
2009,11,24,03,14,8.60
2009,11,24,03,15,8.60
2009,11,24,03,16,8.60
2009,11,24,03,17,8.60
2009,11,24,03,18,8.60
2009,11,24,03,19,8.60
2009,11,24,03,20,8.60
2009,11,24,03,21,8.60
2009,11,24,03,22,8.60
2009,11,24,03,23,8.50
2009,11,24,03,24,8.50
2009,11,24,03,25,8.50
2009,11,24,03,26,8.50
2009,11,24,03,27,8.50
2009,11,24,03,28,8.50
2009,11,24,03,29,8.50
2009,11,24,03,30,8.50
2009,11,24,03,31,8.50
2009,11,24,03,32,8.50
2009,11,24,03,33,8.50
2009,11,24,03,34,8.50
2009,11,24,03,35,8.50
2009,11,24,03,36,8.50
2009,11,24,03,37,8.50
2009,11,24,03,38,8.50
2009,11,24,03,39,8.50
2009,11,24,03,40,8.50
2009,11,24,03,41,8.50
2009,11,24,03,42,8.50
2009,11,24,03,43,8.50
2009,11,24,03,44,8.50
2009,11,24,03,45,8.50
2009,11,24,03,46,8.50
2009,11,24,03,47,8.50
2009,11,24,03,48,8.50
2009,11,24,03,49,8.50
2009,11,24,03,50,8.50
2009,11,24,03,51,8.50
2009,11,24,03,52,8.50
2009,11,24,03,53,8.50
2009,11,24,03,54,8.50
2009,11,24,03,55,8.50
2009,11,24,03,56,8.50
2009,11,24,03,57,8.60
2009,11,24,03,58,8.60
2009,11,24,03,59,8.60
2009,11,24,04,00,8.60
2009,11,24,04,01,8.60
2009,11,24,04,02,8.60
2009,11,24,04,03,8.60
2009,11,24,04,04,8.50
2009,11,24,04,05,8.50
2009,11,24,04,06,8.60
2009,11,24,04,07,8.50
2009,11,24,04,08,8.50
2009,11,24,04,09,8.50
2009,11,24,04,10,8.50
2009,11,24,04,11,8.50
2009,11,24,04,12,8.50
2009,11,24,04,13,8.50
2009,11,24,04,14,8.50
2009,11,24,04,15,8.50
2009,11,24,04,16,8.50
2009,11,24,04,17,8.40
2009,11,24,04,18,8.40
2009,11,24,04,19,8.40
2009,11,24,04,20,8.40
2009,11,24,04,21,8.40
2009,11,24,04,22,8.40
2009,11,24,04,23,8.40
2009,11,24,04,24,8.40
2009,11,24,04,25,8.40
2009,11,24,04,26,8.40
2009,11,24,04,27,8.40
2009,11,24,04,28,8.40
2009,11,24,04,29,8.40
2009,11,24,04,30,8.40
2009,11,24,04,31,8.40
2009,11,24,04,32,8.40
2009,11,24,04,33,8.40
2009,11,24,04,34,8.40
2009,11,24,04,35,8.40
2009,11,24,04,36,8.40
2009,11,24,04,37,8.40
2009,11,24,04,38,8.40
2009,11,24,04,39,8.40
2009,11,24,04,40,8.40
2009,11,24,04,41,8.40
2009,11,24,04,42,8.40
2009,11,24,04,43,8.40
2009,11,24,04,44,8.40
2009,11,24,04,45,8.40
2009,11,24,04,46,8.40
2009,11,24,04,47,8.40
2009,11,24,04,48,8.40
2009,11,24,04,49,8.40
2009,11,24,04,50,8.40
2009,11,24,04,51,8.40
2009,11,24,04,52,8.40
2009,11,24,04,53,8.40
2009,11,24,04,54,8.40
2009,11,24,04,55,8.40
2009,11,24,04,56,8.40
2009,11,24,04,57,8.40
2009,11,24,04,58,8.40
2009,11,24,04,59,8.40
2009,11,24,05,00,8.40
2009,11,24,05,01,8.40
2009,11,24,05,02,8.40
2009,11,24,05,03,8.40
2009,11,24,05,04,8.40
2009,11,24,05,05,8.40
2009,11,24,05,06,8.40
2009,11,24,05,07,8.50
2009,11,24,05,08,8.50
2009,11,24,05,09,8.50
2009,11,24,05,10,8.50
2009,11,24,05,11,8.50
2009,11,24,05,12,8.50
2009,11,24,05,13,8.50
2009,11,24,05,14,8.50
2009,11,24,05,15,8.50
2009,11,24,05,16,8.50
2009,11,24,05,17,8.50
2009,11,24,05,18,8.50
2009,11,24,05,19,8.50
2009,11,24,05,20,8.50
2009,11,24,05,21,8.50
2009,11,24,05,22,8.50
2009,11,24,05,23,8.50
2009,11,24,05,24,8.50
2009,11,24,05,25,8.50
2009,11,24,05,26,8.50
2009,11,24,05,27,8.50
2009,11,24,05,28,8.50
2009,11,24,05,29,8.50
2009,11,24,05,30,8.50
2009,11,24,05,31,8.50
2009,11,24,05,32,8.50
2009,11,24,05,33,8.50
2009,11,24,05,34,8.50
2009,11,24,05,35,8.60
2009,11,24,05,36,8.60
2009,11,24,05,37,8.50
2009,11,24,05,38,8.60
2009,11,24,05,39,8.60
2009,11,24,05,40,8.60
2009,11,24,05,41,8.60
2009,11,24,05,42,8.60
2009,11,24,05,43,8.60
2009,11,24,05,44,8.60
2009,11,24,05,45,8.60
2009,11,24,05,46,8.60
2009,11,24,05,47,8.60
2009,11,24,05,48,8.60
2009,11,24,05,49,8.60
2009,11,24,05,50,8.60
2009,11,24,05,51,8.60
2009,11,24,05,52,8.60
2009,11,24,05,53,8.60
2009,11,24,05,54,8.60
2009,11,24,05,55,8.60
2009,11,24,05,56,8.60
2009,11,24,05,57,8.60
2009,11,24,05,58,8.60
2009,11,24,05,59,8.60
2009,11,24,06,00,8.60
2009,11,24,06,01,8.60
2009,11,24,06,02,8.60
2009,11,24,06,03,8.60
2009,11,24,06,04,8.60
2009,11,24,06,05,8.60
2009,11,24,06,06,8.60
2009,11,24,06,07,8.60
2009,11,24,06,08,8.60
2009,11,24,06,09,8.60
2009,11,24,06,10,8.60
2009,11,24,06,11,8.60
2009,11,24,06,12,8.60
2009,11,24,06,13,8.50
2009,11,24,06,14,8.50
2009,11,24,06,15,8.50
2009,11,24,06,16,8.50
2009,11,24,06,17,8.50
2009,11,24,06,18,8.50
2009,11,24,06,19,8.50
2009,11,24,06,20,8.50
2009,11,24,06,21,8.50
2009,11,24,06,22,8.50
2009,11,24,06,23,8.50
2009,11,24,06,24,8.50
2009,11,24,06,25,8.50
2009,11,24,06,26,8.50
2009,11,24,06,27,8.50
2009,11,24,06,28,8.40
2009,11,24,06,29,8.40
2009,11,24,06,30,8.40
2009,11,24,06,31,8.40
2009,11,24,06,32,8.40
2009,11,24,06,33,8.40
2009,11,24,06,34,8.40
2009,11,24,06,35,8.40
2009,11,24,06,36,8.40
2009,11,24,06,37,8.40
2009,11,24,06,38,8.40
2009,11,24,06,39,8.40
2009,11,24,06,40,8.40
2009,11,24,06,41,8.40
2009,11,24,06,42,8.40
2009,11,24,06,43,8.40
2009,11,24,06,44,8.40
2009,11,24,06,45,8.40
2009,11,24,06,46,8.40
2009,11,24,06,47,8.40
2009,11,24,06,48,8.40
2009,11,24,06,49,8.40
2009,11,24,06,50,8.40
2009,11,24,06,51,8.40
2009,11,24,06,52,8.40
2009,11,24,06,53,8.40
2009,11,24,06,54,8.40
2009,11,24,06,55,8.40
2009,11,24,06,56,8.40
2009,11,24,06,57,8.40
2009,11,24,06,58,8.40
2009,11,24,06,59,8.40
2009,11,24,07,00,8.40
2009,11,24,07,01,8.40
2009,11,24,07,02,8.40
2009,11,24,07,03,8.40
2009,11,24,07,04,8.40
2009,11,24,07,05,8.40
2009,11,24,07,06,8.40
2009,11,24,07,07,8.40
2009,11,24,07,08,8.40
2009,11,24,07,09,8.40
2009,11,24,07,10,8.40
2009,11,24,07,11,8.40
2009,11,24,07,12,8.40
2009,11,24,07,13,8.40
2009,11,24,07,14,8.40
2009,11,24,07,15,8.40
2009,11,24,07,16,8.40
2009,11,24,07,17,8.40
2009,11,24,07,18,8.40
2009,11,24,07,19,8.40
2009,11,24,07,20,8.40
2009,11,24,07,21,8.40
2009,11,24,07,22,8.40
2009,11,24,07,23,8.40
2009,11,24,07,24,8.40
2009,11,24,07,25,8.40
2009,11,24,07,26,8.40
2009,11,24,07,27,8.40
2009,11,24,07,28,8.40
2009,11,24,07,29,8.40
2009,11,24,07,30,8.40
2009,11,24,07,31,8.50
2009,11,24,07,32,8.50
2009,11,24,07,33,8.50
2009,11,24,07,34,8.50
2009,11,24,07,35,8.50
2009,11,24,07,36,8.50
2009,11,24,07,37,8.50
2009,11,24,07,38,8.50
2009,11,24,07,39,8.50
2009,11,24,07,40,8.50
2009,11,24,07,41,8.50
2009,11,24,07,42,8.60
2009,11,24,07,43,8.60
2009,11,24,07,44,8.60
2009,11,24,07,45,8.60
2009,11,24,07,46,8.60
2009,11,24,07,47,8.60
2009,11,24,07,48,8.60
2009,11,24,07,49,8.60
2009,11,24,07,50,8.60
2009,11,24,07,51,8.60
2009,11,24,07,52,8.60
2009,11,24,07,53,8.60
2009,11,24,07,54,8.60
2009,11,24,07,55,8.60
2009,11,24,07,56,8.60
2009,11,24,07,57,8.60
2009,11,24,07,58,8.60
2009,11,24,07,59,8.60
2009,11,24,08,00,8.60
2009,11,24,08,01,8.60
2009,11,24,08,02,8.60
2009,11,24,08,03,8.60
2009,11,24,08,04,8.60
2009,11,24,08,05,8.70
2009,11,24,08,06,8.70
2009,11,24,08,07,8.70
2009,11,24,08,08,8.70
2009,11,24,08,09,8.70
2009,11,24,08,10,8.70
2009,11,24,08,11,8.70
2009,11,24,08,12,8.70
2009,11,24,08,13,8.70
2009,11,24,08,14,8.70
2009,11,24,08,15,8.70
2009,11,24,08,16,8.70
2009,11,24,08,17,8.70
2009,11,24,08,18,8.70
2009,11,24,08,19,8.70
2009,11,24,08,20,8.70
2009,11,24,08,21,8.70
2009,11,24,08,22,8.70
2009,11,24,08,23,8.70
2009,11,24,08,24,8.70
2009,11,24,08,25,8.70
2009,11,24,08,26,8.70
2009,11,24,08,27,8.70
2009,11,24,08,28,8.70
2009,11,24,08,29,8.70
2009,11,24,08,30,8.70
2009,11,24,08,31,8.70
2009,11,24,08,32,8.70
2009,11,24,08,33,8.70
2009,11,24,08,34,8.70
2009,11,24,08,35,8.70
2009,11,24,08,36,8.70
2009,11,24,08,37,8.70
2009,11,24,08,38,8.70
2009,11,24,08,39,8.70
2009,11,24,08,40,8.70
2009,11,24,08,41,8.70
2009,11,24,08,42,8.70
2009,11,24,08,43,8.70
2009,11,24,08,44,8.70
2009,11,24,08,45,8.70
2009,11,24,08,46,8.70
2009,11,24,08,47,8.70
2009,11,24,08,48,8.70
2009,11,24,08,49,8.70
2009,11,24,08,50,8.70
2009,11,24,08,51,8.70
2009,11,24,08,52,8.70
2009,11,24,08,53,8.70
2009,11,24,08,54,8.70
2009,11,24,08,55,8.70
2009,11,24,08,56,8.70
2009,11,24,08,57,8.70
2009,11,24,08,58,8.70
2009,11,24,08,59,8.70
2009,11,24,09,00,8.70
2009,11,24,09,01,8.70
2009,11,24,09,02,8.70
2009,11,24,09,03,8.60
2009,11,24,09,04,8.60
2009,11,24,09,05,8.60
2009,11,24,09,06,8.60
2009,11,24,09,07,8.60
2009,11,24,09,08,8.60
2009,11,24,09,09,8.60
2009,11,24,09,10,8.60
2009,11,24,09,11,8.60
2009,11,24,09,12,8.60
2009,11,24,09,13,8.60
2009,11,24,09,14,8.60
2009,11,24,09,15,8.60
2009,11,24,09,16,8.60
2009,11,24,09,17,8.60
2009,11,24,09,18,8.60
2009,11,24,09,19,8.60
2009,11,24,09,20,8.60
2009,11,24,09,21,8.60
2009,11,24,09,22,8.60
2009,11,24,09,23,8.60
2009,11,24,09,24,8.60
2009,11,24,09,25,8.60
2009,11,24,09,26,8.60
2009,11,24,09,27,8.60
2009,11,24,09,28,8.60
2009,11,24,09,29,8.60
2009,11,24,09,30,8.60
2009,11,24,09,31,8.60
2009,11,24,09,32,8.60
2009,11,24,09,33,8.60
2009,11,24,09,34,8.60
2009,11,24,09,35,8.60
2009,11,24,09,36,8.60
2009,11,24,09,37,8.60
2009,11,24,09,38,8.60
2009,11,24,09,39,8.60
2009,11,24,09,40,8.60
2009,11,24,09,41,8.60
2009,11,24,09,42,8.60
2009,11,24,09,43,8.60
2009,11,24,09,44,8.60
2009,11,24,09,45,8.60
2009,11,24,09,46,8.60
2009,11,24,09,47,8.60
2009,11,24,09,48,8.60
2009,11,24,09,49,8.60
2009,11,24,09,50,8.60
2009,11,24,09,51,8.60
2009,11,24,09,52,8.60
2009,11,24,09,53,8.60
2009,11,24,09,54,8.60
2009,11,24,09,55,8.60
2009,11,24,09,56,8.60
2009,11,24,09,57,8.60
2009,11,24,09,58,8.60
2009,11,24,09,59,8.60
2009,11,24,10,00,8.60
2009,11,24,10,01,8.60
2009,11,24,10,02,8.60
2009,11,24,10,03,8.60
2009,11,24,10,04,8.60
2009,11,24,10,05,8.60
2009,11,24,10,06,8.60
2009,11,24,10,07,8.60
2009,11,24,10,08,8.60
2009,11,24,10,09,8.60
2009,11,24,10,10,8.60
2009,11,24,10,11,8.60
2009,11,24,10,12,8.60
2009,11,24,10,13,8.60
2009,11,24,10,14,8.60
2009,11,24,10,15,8.60
2009,11,24,10,16,8.60
2009,11,24,10,17,8.60
2009,11,24,10,18,8.60
2009,11,24,10,19,8.60
2009,11,24,10,20,8.60
2009,11,24,10,21,8.60
2009,11,24,10,22,8.60
2009,11,24,10,23,8.60
2009,11,24,10,24,8.60
2009,11,24,10,25,8.60
2009,11,24,10,26,8.60
2009,11,24,10,27,8.60
2009,11,24,10,28,8.60
2009,11,24,10,29,8.60
2009,11,24,10,30,8.60
2009,11,24,10,31,8.60
2009,11,24,10,32,8.60
2009,11,24,10,33,8.60
2009,11,24,10,34,8.60
2009,11,24,10,35,8.60
2009,11,24,10,36,8.60
2009,11,24,10,37,8.60
2009,11,24,10,38,8.60
2009,11,24,10,39,8.60
2009,11,24,10,40,8.60
2009,11,24,10,41,8.60
2009,11,24,10,42,8.60
2009,11,24,10,43,8.50
2009,11,24,10,44,8.50
2009,11,24,10,45,8.50
2009,11,24,10,46,8.50
2009,11,24,10,47,8.50
2009,11,24,10,48,8.50
2009,11,24,10,49,8.50
2009,11,24,10,50,8.50
2009,11,24,10,51,8.50
2009,11,24,10,52,8.50
2009,11,24,10,53,8.50
2009,11,24,10,54,8.50
2009,11,24,10,55,8.50
2009,11,24,10,56,8.50
2009,11,24,10,57,8.50
2009,11,24,10,58,8.50
2009,11,24,10,59,8.50
2009,11,24,11,00,8.50
2009,11,24,11,01,8.50
2009,11,24,11,02,8.50
2009,11,24,11,03,8.50
2009,11,24,11,04,8.50
2009,11,24,11,05,8.50
2009,11,24,11,06,8.60
2009,11,24,11,07,8.60
2009,11,24,11,08,8.60
2009,11,24,11,09,8.60
2009,11,24,11,10,8.60
2009,11,24,11,11,8.60
2009,11,24,11,12,8.60
2009,11,24,11,13,8.60
2009,11,24,11,14,8.60
2009,11,24,11,15,8.60
2009,11,24,11,16,8.60
2009,11,24,11,17,8.60
2009,11,24,11,18,8.60
2009,11,24,11,19,8.60
2009,11,24,11,20,8.60
2009,11,24,11,21,8.60
2009,11,24,11,22,8.60
2009,11,24,11,23,8.60
2009,11,24,11,24,8.60
2009,11,24,11,25,8.70
2009,11,24,11,26,8.70
2009,11,24,11,27,8.70
2009,11,24,11,28,8.70
2009,11,24,11,29,8.70
2009,11,24,11,30,8.70
2009,11,24,11,31,8.70
2009,11,24,11,32,8.80
2009,11,24,11,33,8.80
2009,11,24,11,34,8.80
2009,11,24,11,35,8.80
2009,11,24,11,36,8.80
2009,11,24,11,37,8.80
2009,11,24,11,38,8.80
2009,11,24,11,39,8.80
2009,11,24,11,40,8.80
2009,11,24,11,41,8.80
2009,11,24,11,42,8.80
2009,11,24,11,43,8.90
2009,11,24,11,44,8.90
2009,11,24,11,45,8.90
2009,11,24,11,46,8.90
2009,11,24,11,47,8.90
2009,11,24,11,48,8.90
2009,11,24,11,49,8.90
2009,11,24,11,50,8.90
2009,11,24,11,51,8.90
2009,11,24,11,52,8.90
2009,11,24,11,53,8.90
2009,11,24,11,54,8.90
2009,11,24,11,55,8.90
2009,11,24,11,56,8.90
2009,11,24,11,57,9.00
2009,11,24,11,58,9.00
2009,11,24,11,59,9.00
2009,11,24,12,00,9.00
2009,11,24,12,01,9.00
2009,11,24,12,02,9.00
2009,11,24,12,03,9.00
2009,11,24,12,04,9.00
2009,11,24,12,05,9.00
2009,11,24,12,06,9.00
2009,11,24,12,07,9.00
2009,11,24,12,08,9.00
2009,11,24,12,09,9.10
2009,11,24,12,10,9.00
2009,11,24,12,11,9.10
2009,11,24,12,12,9.00
2009,11,24,12,13,9.10
2009,11,24,12,14,9.10
2009,11,24,12,15,9.10
2009,11,24,12,16,9.10
2009,11,24,12,17,9.10
2009,11,24,12,18,9.10
2009,11,24,12,19,9.10
2009,11,24,12,20,9.10
2009,11,24,12,21,9.10
2009,11,24,12,22,9.10
2009,11,24,12,23,9.10
2009,11,24,12,24,9.10
2009,11,24,12,25,9.10
2009,11,24,12,26,9.20
2009,11,24,12,27,9.20
2009,11,24,12,28,9.20
2009,11,24,12,29,9.20
2009,11,24,12,30,9.20
2009,11,24,12,31,9.20
2009,11,24,12,32,9.20
2009,11,24,12,33,9.20
2009,11,24,12,34,9.20
2009,11,24,12,35,9.20
2009,11,24,12,36,9.20
2009,11,24,12,37,9.20
2009,11,24,12,38,9.20
2009,11,24,12,39,9.20
2009,11,24,12,40,9.20
2009,11,24,12,41,9.20
2009,11,24,12,42,9.20
2009,11,24,12,43,9.20
2009,11,24,12,44,9.20
2009,11,24,12,45,9.20
2009,11,24,12,46,9.20
2009,11,24,12,47,9.20
2009,11,24,12,48,9.20
2009,11,24,12,49,9.20
2009,11,24,12,50,9.20
2009,11,24,12,51,9.20
2009,11,24,12,52,9.20
2009,11,24,12,53,9.20
2009,11,24,12,54,9.30
2009,11,24,12,55,9.20
2009,11,24,12,56,9.30
2009,11,24,12,57,9.30
2009,11,24,12,58,9.20
2009,11,24,12,59,9.20
2009,11,24,13,00,9.20
2009,11,24,13,01,9.20
2009,11,24,13,02,9.20
2009,11,24,13,03,9.20
2009,11,24,13,04,9.20
2009,11,24,13,05,9.20
2009,11,24,13,06,9.20
2009,11,24,13,07,9.20
2009,11,24,13,08,9.20
2009,11,24,13,09,9.20
2009,11,24,13,10,9.20
2009,11,24,13,11,9.20
2009,11,24,13,12,9.20
2009,11,24,13,13,9.20
2009,11,24,13,14,9.20
2009,11,24,13,15,9.20
2009,11,24,13,16,9.20
2009,11,24,13,17,9.20
2009,11,24,13,18,9.20
2009,11,24,13,19,9.20
2009,11,24,13,20,9.20
2009,11,24,13,21,9.20
2009,11,24,13,22,9.20
2009,11,24,13,23,9.20
2009,11,24,13,24,9.20
2009,11,24,13,25,9.20
2009,11,24,13,26,9.20
2009,11,24,13,27,9.20
2009,11,24,13,28,9.20
2009,11,24,13,29,9.20
2009,11,24,13,30,9.20
2009,11,24,13,31,9.20
2009,11,24,13,32,9.30
2009,11,24,13,33,9.30
2009,11,24,13,34,9.30
2009,11,24,13,35,9.30
2009,11,24,13,36,9.30
2009,11,24,13,37,9.30
2009,11,24,13,38,9.30
2009,11,24,13,39,9.30
2009,11,24,13,40,9.30
2009,11,24,13,41,9.30
2009,11,24,13,42,9.30
2009,11,24,13,43,9.30
2009,11,24,13,44,9.30
2009,11,24,13,45,9.30
2009,11,24,13,46,9.30
2009,11,24,13,47,9.30
2009,11,24,13,48,9.30
2009,11,24,13,49,9.30
2009,11,24,13,50,9.30
2009,11,24,13,51,9.30
2009,11,24,13,52,9.30
2009,11,24,13,53,9.30
2009,11,24,13,54,9.30
2009,11,24,13,55,9.30
2009,11,24,13,56,9.30
2009,11,24,13,57,9.30
2009,11,24,13,58,9.30
2009,11,24,13,59,9.30
2009,11,24,14,00,9.30
2009,11,24,14,01,9.30
2009,11,24,14,02,9.30
2009,11,24,14,03,9.30
2009,11,24,14,04,9.30
2009,11,24,14,05,9.30
2009,11,24,14,06,9.30
2009,11,24,14,07,9.30
2009,11,24,14,08,9.30
2009,11,24,14,09,9.30
2009,11,24,14,10,9.40
2009,11,24,14,11,9.40
2009,11,24,14,12,9.40
2009,11,24,14,13,9.40
2009,11,24,14,14,9.40
2009,11,24,14,15,9.40
2009,11,24,14,16,9.40
2009,11,24,14,17,9.40
2009,11,24,14,18,9.40
2009,11,24,14,19,9.40
2009,11,24,14,20,9.40
2009,11,24,14,21,9.40
2009,11,24,14,22,9.40
2009,11,24,14,23,9.40
2009,11,24,14,24,9.40
2009,11,24,14,25,9.40
2009,11,24,14,26,9.40
2009,11,24,14,27,9.40
2009,11,24,14,28,9.40
2009,11,24,14,29,9.40
2009,11,24,14,30,9.40
2009,11,24,14,31,9.40
2009,11,24,14,32,9.40
2009,11,24,14,33,9.40
2009,11,24,14,34,9.40
2009,11,24,14,35,9.40
2009,11,24,14,36,9.40
2009,11,24,14,37,9.40
2009,11,24,14,38,9.50
2009,11,24,14,39,9.50
2009,11,24,14,40,9.50
2009,11,24,14,41,9.50
2009,11,24,14,42,9.50
2009,11,24,14,43,9.50
2009,11,24,14,44,9.50
2009,11,24,14,45,9.40
2009,11,24,14,46,9.40
2009,11,24,14,47,9.40
2009,11,24,14,48,9.40
2009,11,24,14,49,9.50
2009,11,24,14,50,9.50
2009,11,24,14,51,9.50
2009,11,24,14,52,9.50
2009,11,24,14,53,9.50
2009,11,24,14,54,9.50
2009,11,24,14,55,9.50
2009,11,24,14,56,9.50
2009,11,24,14,57,9.50
2009,11,24,14,58,9.50
2009,11,24,14,59,9.50
2009,11,24,15,00,9.50
2009,11,24,15,01,9.50
2009,11,24,15,02,9.50
2009,11,24,15,03,9.50
2009,11,24,15,04,9.50
2009,11,24,15,05,9.50
2009,11,24,15,06,9.60
2009,11,24,15,07,9.60
2009,11,24,15,08,9.60
2009,11,24,15,09,9.60
2009,11,24,15,10,9.60
2009,11,24,15,11,9.60
2009,11,24,15,12,9.60
2009,11,24,15,13,9.60
2009,11,24,15,14,9.60
2009,11,24,15,15,9.60
2009,11,24,15,16,9.60
2009,11,24,15,17,9.60
2009,11,24,15,18,9.60
2009,11,24,15,19,9.60
2009,11,24,15,20,9.60
2009,11,24,15,21,9.60
2009,11,24,15,22,9.60
2009,11,24,15,23,9.60
2009,11,24,15,24,9.60
2009,11,24,15,25,9.60
2009,11,24,15,26,9.60
2009,11,24,15,27,9.60
2009,11,24,15,28,9.60
2009,11,24,15,29,9.60
2009,11,24,15,30,9.60
2009,11,24,15,31,9.60
2009,11,24,15,32,9.60
2009,11,24,15,33,9.60
2009,11,24,15,34,9.60
2009,11,24,15,35,9.60
2009,11,24,15,36,9.70
2009,11,24,15,37,9.70
2009,11,24,15,38,9.70
2009,11,24,15,39,9.70
2009,11,24,15,40,9.70
2009,11,24,15,41,9.70
2009,11,24,15,42,9.70
2009,11,24,15,43,9.70
2009,11,24,15,44,9.70
2009,11,24,15,45,9.60
2009,11,24,15,46,9.60
2009,11,24,15,47,9.60
2009,11,24,15,48,9.70
2009,11,24,15,49,9.60
2009,11,24,15,50,9.70
2009,11,24,15,51,9.70
2009,11,24,15,52,9.70
2009,11,24,15,53,9.70
2009,11,24,15,54,9.70
2009,11,24,15,55,9.70
2009,11,24,15,56,9.70
2009,11,24,15,57,9.70
2009,11,24,15,58,9.70
2009,11,24,15,59,9.70
2009,11,24,16,00,9.70
2009,11,24,16,01,9.70
2009,11,24,16,02,9.70
2009,11,24,16,03,9.70
2009,11,24,16,04,9.70
2009,11,24,16,05,9.70
2009,11,24,16,06,9.70
2009,11,24,16,07,9.70
2009,11,24,16,08,9.70
2009,11,24,16,09,9.70
2009,11,24,16,10,9.60
2009,11,24,16,11,9.60
2009,11,24,16,12,9.60
2009,11,24,16,13,9.60
2009,11,24,16,14,9.70
2009,11,24,16,15,9.70
2009,11,24,16,16,9.60
2009,11,24,16,17,9.60
2009,11,24,16,18,9.60
2009,11,24,16,19,9.70
2009,11,24,16,20,9.60
2009,11,24,16,21,9.60
2009,11,24,16,22,9.70
2009,11,24,16,23,9.60
2009,11,24,16,24,9.60
2009,11,24,16,25,9.60
2009,11,24,16,26,9.60
2009,11,24,16,27,9.60
2009,11,24,16,28,9.60
2009,11,24,16,29,9.60
2009,11,24,16,30,9.60
2009,11,24,16,31,9.60
2009,11,24,16,32,9.60
2009,11,24,16,33,9.60
2009,11,24,16,34,9.60
2009,11,24,16,35,9.60
2009,11,24,16,36,9.60
2009,11,24,16,37,9.60
2009,11,24,16,38,9.60
2009,11,24,16,39,9.60
2009,11,24,16,40,9.60
2009,11,24,16,41,9.60
2009,11,24,16,42,9.60
2009,11,24,16,43,9.60
2009,11,24,16,44,9.60
2009,11,24,16,45,9.60
2009,11,24,16,46,9.60
2009,11,24,16,47,9.60
2009,11,24,16,48,9.60
2009,11,24,16,49,9.60
2009,11,24,16,50,9.60
2009,11,24,16,51,9.60
2009,11,24,16,52,9.60
2009,11,24,16,53,9.60
2009,11,24,16,54,9.60
2009,11,24,16,55,9.70
2009,11,24,16,56,9.70
2009,11,24,16,57,9.70
2009,11,24,16,58,9.70
2009,11,24,16,59,9.70
2009,11,24,17,00,9.70
2009,11,24,17,01,9.70
2009,11,24,17,02,9.70
2009,11,24,17,03,9.70
2009,11,24,17,04,9.70
2009,11,24,17,05,9.70
2009,11,24,17,06,9.70
2009,11,24,17,07,9.70
2009,11,24,17,08,9.70
2009,11,24,17,09,9.70
2009,11,24,17,10,9.70
2009,11,24,17,11,9.70
2009,11,24,17,12,9.70
2009,11,24,17,13,9.70
2009,11,24,17,14,9.70
2009,11,24,17,15,9.70
2009,11,24,17,16,9.70
2009,11,24,17,17,9.70
2009,11,24,17,18,9.70
2009,11,24,17,19,9.70
2009,11,24,17,20,9.70
2009,11,24,17,21,9.70
2009,11,24,17,22,9.70
2009,11,24,17,23,9.70
2009,11,24,17,24,9.70
2009,11,24,17,25,9.70
2009,11,24,17,26,9.70
2009,11,24,17,27,9.60
2009,11,24,17,28,9.60
2009,11,24,17,29,9.60
2009,11,24,17,30,9.60
2009,11,24,17,31,9.60
2009,11,24,17,32,9.60
2009,11,24,17,33,9.60
2009,11,24,17,34,9.60
2009,11,24,17,35,9.60
2009,11,24,17,36,9.60
2009,11,24,17,37,9.60
2009,11,24,17,38,9.60
2009,11,24,17,39,9.60
2009,11,24,17,40,9.60
2009,11,24,17,41,9.60
2009,11,24,17,42,9.60
2009,11,24,17,43,9.60
2009,11,24,17,44,9.60
2009,11,24,17,45,9.60
2009,11,24,17,46,9.60
2009,11,24,17,47,9.60
2009,11,24,17,48,9.60
2009,11,24,17,49,9.60
2009,11,24,17,50,9.50
2009,11,24,17,51,9.50
2009,11,24,17,52,9.50
2009,11,24,17,53,9.50
2009,11,24,17,54,9.50
2009,11,24,17,55,9.50
2009,11,24,17,56,9.50
2009,11,24,17,57,9.50
2009,11,24,17,58,9.50
2009,11,24,17,59,9.50
2009,11,24,18,00,9.50
2009,11,24,18,01,9.50
2009,11,24,18,02,9.50
2009,11,24,18,03,9.50
2009,11,24,18,04,9.50
2009,11,24,18,05,9.50
2009,11,24,18,06,9.50
2009,11,24,18,07,9.50
2009,11,24,18,08,9.50
2009,11,24,18,09,9.50
2009,11,24,18,10,9.50
2009,11,24,18,11,9.50
2009,11,24,18,12,9.50
2009,11,24,18,13,9.50
2009,11,24,18,14,9.50
2009,11,24,18,15,9.50
2009,11,24,18,16,9.50
2009,11,24,18,17,9.50
2009,11,24,18,18,9.40
2009,11,24,18,19,9.40
2009,11,24,18,20,9.40
2009,11,24,18,21,9.40
2009,11,24,18,22,9.40
2009,11,24,18,23,9.40
2009,11,24,18,24,9.40
2009,11,24,18,25,9.40
2009,11,24,18,26,9.40
2009,11,24,18,27,9.40
2009,11,24,18,28,9.40
2009,11,24,18,29,9.40
2009,11,24,18,30,9.40
2009,11,24,18,31,9.40
2009,11,24,18,32,9.40
2009,11,24,18,33,9.40
2009,11,24,18,34,9.40
2009,11,24,18,35,9.40
2009,11,24,18,36,9.40
2009,11,24,18,37,9.40
2009,11,24,18,38,9.40
2009,11,24,18,39,9.40
2009,11,24,18,40,9.40
2009,11,24,18,41,9.40
2009,11,24,18,42,9.40
2009,11,24,18,43,9.40
2009,11,24,18,44,9.40
2009,11,24,18,45,9.40
2009,11,24,18,46,9.40
2009,11,24,18,47,9.50
2009,11,24,18,48,9.50
2009,11,24,18,49,9.40
2009,11,24,18,50,9.50
2009,11,24,18,51,9.50
2009,11,24,18,52,9.50
2009,11,24,18,53,9.50
2009,11,24,18,54,9.50
2009,11,24,18,55,9.50
2009,11,24,18,56,9.50
2009,11,24,18,57,9.50
2009,11,24,18,58,9.50
2009,11,24,18,59,9.50
2009,11,24,19,00,9.50
2009,11,24,19,01,9.50
2009,11,24,19,02,9.50
2009,11,24,19,03,9.50
2009,11,24,19,04,9.50
2009,11,24,19,05,9.50
2009,11,24,19,06,9.50
2009,11,24,19,07,9.50
2009,11,24,19,08,9.50
2009,11,24,19,09,9.50
2009,11,24,19,10,9.50
2009,11,24,19,11,9.50
2009,11,24,19,12,9.50
2009,11,24,19,13,9.50
2009,11,24,19,14,9.50
2009,11,24,19,15,9.50
2009,11,24,19,16,9.50
2009,11,24,19,17,9.50
2009,11,24,19,18,9.60
2009,11,24,19,19,9.50
2009,11,24,19,20,9.60
2009,11,24,19,21,9.60
2009,11,24,19,22,9.60
2009,11,24,19,23,9.60
2009,11,24,19,24,9.60
2009,11,24,19,25,9.50
2009,11,24,19,26,9.60
2009,11,24,19,27,9.60
2009,11,24,19,28,9.60
2009,11,24,19,29,9.60
2009,11,24,19,30,9.60
2009,11,24,19,31,9.60
2009,11,24,19,32,9.60
2009,11,24,19,33,9.60
2009,11,24,19,34,9.60
2009,11,24,19,35,9.60
2009,11,24,19,36,9.60
2009,11,24,19,37,9.60
2009,11,24,19,38,9.60
2009,11,24,19,39,9.60
2009,11,24,19,40,9.60
2009,11,24,19,41,9.60
2009,11,24,19,42,9.60
2009,11,24,19,43,9.60
2009,11,24,19,44,9.60
2009,11,24,19,45,9.60
2009,11,24,19,46,9.60
2009,11,24,19,47,9.60
2009,11,24,19,48,9.60
2009,11,24,19,49,9.60
2009,11,24,19,50,9.60
2009,11,24,19,51,9.60
2009,11,24,19,52,9.60
2009,11,24,19,53,9.60
2009,11,24,19,54,9.60
2009,11,24,19,55,9.70
2009,11,24,19,56,9.70
2009,11,24,19,57,9.70
2009,11,24,19,58,9.70
2009,11,24,19,59,9.70
2009,11,24,20,00,9.70
2009,11,24,20,01,9.70
2009,11,24,20,02,9.70
2009,11,24,20,03,9.70
2009,11,24,20,04,9.70
2009,11,24,20,05,9.70
2009,11,24,20,06,9.80
2009,11,24,20,07,9.80
2009,11,24,20,08,9.80
2009,11,24,20,09,9.80
2009,11,24,20,10,9.80
2009,11,24,20,11,9.80
2009,11,24,20,12,9.80
2009,11,24,20,13,9.80
2009,11,24,20,14,9.80
2009,11,24,20,15,9.80
2009,11,24,20,16,9.80
2009,11,24,20,17,9.80
2009,11,24,20,18,9.80
2009,11,24,20,19,9.80
2009,11,24,20,20,9.90
2009,11,24,20,21,9.90
2009,11,24,20,22,9.90
2009,11,24,20,23,9.90
2009,11,24,20,24,9.90
2009,11,24,20,25,9.90
2009,11,24,20,26,9.90
2009,11,24,20,27,9.90
2009,11,24,20,28,9.90
2009,11,24,20,29,9.90
2009,11,24,20,30,9.90
2009,11,24,20,31,9.90
2009,11,24,20,32,9.90
2009,11,24,20,33,9.90
2009,11,24,20,34,9.90
2009,11,24,20,35,9.90
2009,11,24,20,36,9.90
2009,11,24,20,37,9.90
2009,11,24,20,38,9.90
2009,11,24,20,39,9.90
2009,11,24,20,40,9.90
2009,11,24,20,41,9.90
2009,11,24,20,42,9.90
2009,11,24,20,43,9.90
2009,11,24,20,44,9.90
2009,11,24,20,45,9.90
2009,11,24,20,46,9.90
2009,11,24,20,47,9.90
2009,11,24,20,48,9.90
2009,11,24,20,49,9.90
2009,11,24,20,50,9.90
2009,11,24,20,51,9.90
2009,11,24,20,52,9.90
2009,11,24,20,53,9.90
2009,11,24,20,54,9.90
2009,11,24,20,55,9.90
2009,11,24,20,56,9.90
2009,11,24,20,57,9.90
2009,11,24,20,58,9.90
2009,11,24,20,59,9.90
2009,11,24,21,00,9.90
2009,11,24,21,01,9.90
2009,11,24,21,02,10.00
2009,11,24,21,03,10.00
2009,11,24,21,04,10.00
2009,11,24,21,05,10.00
2009,11,24,21,06,10.00
2009,11,24,21,07,10.00
2009,11,24,21,08,10.00
2009,11,24,21,09,10.00
2009,11,24,21,10,10.00
2009,11,24,21,11,10.00
2009,11,24,21,12,10.00